Weather History for Lakehurst NAS, NJ

Change the Weather History Date:

Sunday, May 12, 2013

  Actual Average Record
Temperature  
Mean Temperature 68 °F -  
Max Temperature 46 °F 67 °F 79 °F (1999)
Min Temperature 53 °F 48 °F 39 °F (2012)
Cooling Degree Days 2    
Growing Degree Days 18 (Base 50)    
Moisture  
Dew Point 46 °F    
Average Humidity 46    
Maximum Humidity 73    
Minimum Humidity 19    
Precipitation  
Precipitation 0.00 in - - ()
Sea Level Pressure  
Sea Level Pressure 29.76 in    
Wind  
Wind Speed 10 mph (WNW)    
Max Wind Speed 23 mph    
Max Gust Speed 31 mph    
Averages and records for this station are not official NWS values.
T = Trace of Precipitation, MM = Missing Value Source: NWS Daily Summary

Daily Weather History Graph

Daily Weather History Graph

Search for Another Location

Airport:

Trip Planner

Search our weather history database for the weather conditions in past years. The results will help you decide how hot, cold, wet, or windy it might be!

Date:

Astronomy

May. 12, 2013 Rise Set
Actual Time 5:44 AM EDT 8:03 PM EDT
Civil Twilight 5:14 AM EDT 8:33 PM EDT
Nautical Twilight 4:36 AM EDT 9:11 PM EDT
Astronomical Twilight 3:55 AM EDT 9:52 PM EDT
Moon 7:37 AM EDT (5/12) 10:28 PM EDT (5/12)
Length of Visible Light 15h 19m
Length of Day
14h 18m
Waxing Crescent, 6% of the Moon is Illuminated
May 12
Waxing Crescent
May 18
First Quarter
May 25
Full
May 31
Last Quarter
Jun 8
New

Hourly Weather History & Observations

Time (EDT) Temp. Dew Point Humidity Pressure Visibility Wind Dir Wind Speed Gust Speed Precip Events Conditions
12:00 AM 75.0 °F 64.9 °F 71% 29.73 in - WSW 4.6 mph - N/A Rain Light Rain
12:29 AM 73.4 °F 64.4 °F 73% 29.71 in - West 4.6 mph - N/A Rain Light Rain
1:00 AM 73.9 °F 63.0 °F 68% 29.71 in - WNW 12.7 mph 16.1 mph N/A Thunderstorm Thunderstorm
1:07 AM 73.4 °F 62.6 °F 69% 29.72 in - WNW 10.4 mph - N/A   Mostly Cloudy
2:00 AM 71.1 °F 59.0 °F 66% 29.69 in - WNW 5.8 mph - N/A   Mostly Cloudy
3:00 AM 70.0 °F 57.9 °F 65% 29.70 in - West 8.1 mph - N/A   Mostly Cloudy
4:00 AM 70.0 °F 57.0 °F 63% 29.72 in - WSW 5.8 mph - N/A Rain Light Rain
5:00 AM 68.0 °F 57.0 °F 68% 29.70 in - West 5.8 mph - N/A   Overcast
6:00 AM 66.9 °F 57.0 °F 70% 29.73 in - West 5.8 mph - N/A   Overcast
7:00 AM 66.9 °F 55.0 °F 66% 29.74 in - WNW 8.1 mph - N/A Rain Light Rain
8:00 AM 68.0 °F 54.0 °F 61% 29.73 in - WNW 6.9 mph - N/A   Mostly Cloudy
9:00 AM 71.1 °F 54.0 °F 55% 29.74 in - West 5.8 mph - N/A   Partly Cloudy
10:00 AM 73.0 °F 48.0 °F 41% 29.73 in - NW 12.7 mph 18.4 mph N/A   Partly Cloudy
11:00 AM 73.9 °F 48.9 °F 41% 29.73 in - West 12.7 mph 20.7 mph N/A   Scattered Clouds
12:00 PM 73.9 °F 46.9 °F 38% 29.73 in - West 16.1 mph 24.2 mph N/A   Partly Cloudy
1:00 PM 73.0 °F 42.1 °F 33% 29.73 in - WNW 19.6 mph 25.3 mph N/A   Mostly Cloudy
2:00 PM 73.9 °F 37.9 °F 27% 29.73 in - WNW 19.6 mph 29.9 mph N/A   Clear
3:00 PM 73.0 °F 30.9 °F 21% 29.74 in - West 23.0 mph 29.9 mph N/A   Clear
4:00 PM 73.0 °F 28.0 °F 19% 29.75 in - West 21.9 mph 31.1 mph N/A   Clear
5:00 PM 71.1 °F 32.0 °F 24% 29.78 in - West 18.4 mph 29.9 mph N/A   Clear
6:00 PM 70.0 °F 28.9 °F 22% 29.81 in - WNW 13.8 mph 24.2 mph N/A   Clear
7:00 PM 66.9 °F 26.1 °F 21% 29.83 in - WNW 19.6 mph 26.5 mph N/A   Clear
8:00 PM 64.9 °F 26.1 °F 23% 29.86 in - WNW 16.1 mph 21.9 mph N/A   Clear
9:00 PM 62.1 °F 26.1 °F 25% 29.88 in - West 9.2 mph - N/A   Clear
10:00 PM 60.1 °F 28.9 °F 31% 29.93 in - West 8.1 mph - N/A   Clear
11:00 PM 53.1 °F 30.9 °F 43% 29.95 in - WNW 4.6 mph - N/A   Clear